Flight Track Log - Related Links

Times and Time Zones

All times are in EDT time to prevent confusion due to time zone crossing. See the N129UP flight status page for this flight to view local times or setup timezone preferences in your user account.

Time Position Orientation Groundspeed Altitude Reporting Facility
EDT Latitude Longitude Course Direction KTS MPH feet Rate Location/Type
05:00AM 38.1640 -85.7230 163° South 165 190 900  Level FlightAware
05:00AM 38.1420 -85.7140 162° South 166 191 2,600 2,945 Climbing FlightAware
05:01AM 38.1220 -85.7040 159° South 193 222 3,600 1,200 Climbing FlightAware
05:01AM 38.1040 -85.6930 154° Southeast 193 222 3,600 2,200 Level FlightAware
05:02AM 38.0600 -85.6680 156° South 279 321 5,800 3,800 Climbing FlightAware
05:02AM 38.0350 -85.6430 142° Southeast 287 330 7,400 3,750 Climbing FlightAware
05:02AM 38.0190 -85.6270 142° Southeast 287 330 8,300 3,067 Climbing FlightAware
05:03AM 37.9870 -85.5960 143° Southeast 304 350 9,700 2,000 Climbing FlightAware
05:03AM 37.9700 -85.5790 142° Southeast 318 366 9,800 150 Climbing FlightAware
05:04AM 37.9390 -85.5470 141° Southeast 357 411 9,800 2,057 Level FlightAware
05:04AM 37.8800 -85.4880 142° Southeast 367 422 12,200 3,035 Climbing FlightAware
05:05AM 37.8230 -85.4380 145° Southeast 386 444 14,100 3,075 Climbing FlightAware
05:06AM 37.7630 -85.3840 145° Southeast 389 448 16,300 3,106 Climbing FlightAware
05:06AM 37.6980 -85.3180 141° Southeast 403 464 18,500 2,682 Climbing FlightAware
05:07AM 37.6340 -85.2670 148° Southeast 411 473 20,100 2,475 Climbing FlightAware
05:08AM 37.5660 -85.2210 152° Southeast 420 483 21,800 2,188 Climbing FlightAware
05:08AM 37.4940 -85.1620 147° Southeast 437 503 23,200 1,906 Climbing FlightAware
05:09AM 37.4250 -85.1020 145° Southeast 447 514 24,500 2,000 Climbing FlightAware
05:10AM 37.3601 -85.0498 147° Southeast 457 526 25,700 2,492 Climbing FlightAware ADS-B
05:10AM 37.3044 -85.0096 150° Southeast 447 514 27,200 2,557 Climbing FlightAware ADS-B
05:11AM 37.2481 -84.9742 153° Southeast 446 513 28,300 1,742 Climbing FlightAware ADS-B
05:11AM 37.1903 -84.9391 154° Southeast 450 518 29,000 689 Climbing FlightAware ADS-B
05:12AM 37.1323 -84.9048 155° Southeast 469 540 29,000  Level FlightAware ADS-B
05:12AM 37.1174 -84.8958 154° Southeast 470 541 29,000  Level FlightAware ADS-B
05:12AM 37.0540 -84.8653 159° South 474 545 29,000  Level FlightAware ADS-B
05:13AM 37.0393 -84.8590 161° South 472 543 29,000  Level FlightAware ADS-B
05:13AM 36.9745 -84.8343 163° South 473 544 29,000  Level FlightAware ADS-B
05:13AM 36.9220 -84.8124 162° South 476 548 29,000  Level FlightAware ADS-B
05:14AM 36.9099 -84.8061 157° South 479 551 29,000  Level FlightAware ADS-B
05:14AM 36.8939 -84.7958 153° Southeast 481 554 29,000  Level FlightAware ADS-B
05:14AM 36.8617 -84.7705 148° Southeast 485 558 29,000  Level FlightAware ADS-B
05:14AM 36.8050 -84.7197 144° Southeast 484 557 29,000  Level FlightAware ADS-B
05:15AM 36.7493 -84.6689 144° Southeast 485 558 29,000  Level FlightAware ADS-B
05:15AM 36.6943 -84.6172 143° Southeast 486 559 29,000  Level FlightAware ADS-B
05:16AM 36.6391 -84.5667 144° Southeast 486 559 29,000  Level FlightAware ADS-B
05:17AM 36.5849 -84.5164 143° Southeast 486 559 29,000  Level FlightAware ADS-B
05:17AM 36.5290 -84.4644 143° Southeast 488 562 29,000  Level FlightAware ADS-B
05:18AM 36.4732 -84.4126 143° Southeast 486 559 29,000  Level FlightAware ADS-B
05:18AM 36.4186 -84.3626 144° Southeast 487 560 29,000  Level FlightAware ADS-B
05:19AM 36.3633 -84.3110 143° Southeast 485 558 29,000  Level FlightAware ADS-B
05:19AM 36.3033 -84.2565 144° Southeast 485 558 29,000  Level FlightAware ADS-B
05:20AM 36.2464 -84.2052 144° Southeast 488 562 29,000  Level FlightAware ADS-B
05:20AM 36.1908 -84.1537 143° Southeast 489 563 29,000  Level FlightAware ADS-B
05:21AM 36.1344 -84.1018 143° Southeast 487 560 29,000  Level FlightAware ADS-B
05:21AM 36.1083 -84.0754 141° Southeast 487 560 29,000  Level FlightAware ADS-B
05:21AM 36.0954 -84.0598 136° Southeast 489 563 29,000  Level FlightAware ADS-B
05:21AM 36.0859 -84.0450 128° Southeast 490 564 29,000  Level FlightAware ADS-B
05:22AM 36.0599 -83.9926 122° Southeast 493 567 29,000  Level FlightAware ADS-B
05:22AM 36.0494 -83.9580 111° Southeast 494 568 29,000  Level FlightAware ADS-B
05:22AM 36.0349 -83.8755 102° East 493 567 29,000  Level FlightAware ADS-B
05:23AM 36.0207 -83.7903 102° East 493 567 29,000  Level FlightAware ADS-B
05:23AM 36.0060 -83.7050 102° East 494 568 29,000  Level FlightAware ADS-B
05:24AM 35.9904 -83.6168 102° East 493 567 29,000  Level FlightAware ADS-B
05:24AM 35.9752 -83.5319 102° East 494 568 29,000  Level FlightAware ADS-B
05:25AM 35.9603 -83.4491 103° East 497 572 29,000  Level FlightAware ADS-B
05:25AM 35.9454 -83.3668 103° East 490 564 29,000  Level FlightAware ADS-B
05:26AM 35.9306 -83.2856 103° East 485 558 29,000 -462 Level FlightAware ADS-B
05:26AM 35.9130 -83.1886 103° East 483 556 28,500 -870 Descending FlightAware ADS-B
05:27AM 35.8945 -83.1015 105° East 474 545 28,000 -957 Descending FlightAware ADS-B
05:28AM 35.8781 -83.0097 102° East 468 539 27,400 -1,091 Descending FlightAware ADS-B
05:28AM 35.8635 -82.9266 102° East 468 539 26,800 -1,048 Descending FlightAware ADS-B
05:29AM 35.8480 -82.8439 103° East 465 535 26,300 -1,443 Descending FlightAware ADS-B
05:29AM 35.8254 -82.7262 103° East 458 527 24,900 -1,881 Descending FlightAware ADS-B
05:30AM 35.8152 -82.6760 104° East 452 520 24,200 -2,118 Descending FlightAware ADS-B
05:30AM 35.7985 -82.5997 105° East 446 513 23,100 -2,129 Descending FlightAware ADS-B
05:31AM 35.7813 -82.5228 105° East 457 526 22,000 -2,129 Descending FlightAware ADS-B
05:31AM 35.7643 -82.4450 105° East 456 525 20,900 -2,066 Descending FlightAware ADS-B
05:32AM 35.7473 -82.3675 105° East 454 522 19,900 -1,938 Descending FlightAware ADS-B
05:32AM 35.7284 -82.2834 105° East 445 512 18,800 -2,027 Descending FlightAware ADS-B
05:33AM 35.7073 -82.1871 105° East 444 511 17,400 -1,645 Descending FlightAware ADS-B
05:33AM 35.6975 -82.1439 105° East 444 511 17,100 -1,663 Descending Atlanta Center
05:34AM 35.6658 -82.0067 106° East 424 488 15,100 -2,000 Descending Atlanta Center
05:35AM 35.6386 -81.8744 104° East 408 470 13,100 -1,950 Descending Atlanta Center
05:36AM 35.6072 -81.7475 107° East 393 452 11,200 -1,050 Descending Atlanta Center
05:37AM 35.5819 -81.6256 104° East 385 443 11,000 -135 Descending Atlanta Center
05:38AM 35.5683 -81.5725 107° East 361 415 11,000  Level Atlanta Center
05:38AM 35.5544 -81.5064 104° East 365 420 11,000 -109 Level Atlanta Center
05:39AM 35.5389 -81.4636 114° Southeast 356 410 10,900 -500 Descending Atlanta Center
05:39AM 35.5208 -81.3978 109° East 351 404 10,500 -800 Descending Atlanta Center
05:40AM 35.5097 -81.3600 110° East 320 368 10,100 -1,300 Descending Atlanta Center
05:40AM 35.4894 -81.3019 113° Southeast 321 369 9,200 -1,475 Descending Atlanta Center
05:41AM 35.4803 -81.2664 108° East 292 336 8,600 -1,500 Descending Atlanta Center
05:41AM 35.4622 -81.2058 110° East 297 342 7,700 -1,600 Descending Atlanta Center
05:42AM 35.4511 -81.1681 110° East 286 329 7,000 -1,400 Descending Atlanta Center
05:42AM 35.4353 -81.1175 111° Southeast 284 327 6,300 -1,377 Descending Atlanta Center
05:43AM 35.4239 -81.0772 109° East 278 320 5,600 -1,500 Descending Atlanta Center
05:43AM 35.4081 -81.0294 112° Southeast 278 320 4,800 -1,377 Descending Atlanta Center
05:44AM 35.3967 -80.9917 110° East 269 310 4,200 -800 Descending Atlanta Center
05:44AM 35.3831 -80.9464 110° East 272 313 4,000 -727 Descending Atlanta Center
05:45AM 35.3717 -80.9058 109° East 242 278 3,400 -900 Descending Atlanta Center
05:45AM 35.3561 -80.8733 120° Southeast 244 281 3,100 -419 Descending Atlanta Center
05:46AM 35.3494 -80.8583 119° Southeast 221 254 3,100 -100 Level Atlanta Center
05:46AM 35.3156 -80.8317 147° Southeast 210 242 3,000 -411 Descending Atlanta Center
05:47AM 35.2925 -80.8353 187° South 165 190 2,600 -651 Descending Atlanta Center
05:48AM 35.2664 -80.8717 229° Southwest 147 169 2,100 -574 Descending Atlanta Center
05:49AM 35.2464 -80.9031 232° Southwest 120 138 1,500 -639 Descending Atlanta Center
05:50AM 35.2242 -80.9344 229° Southwest 115 132 800 -689 Descending Atlanta Center
05:52AM 35.2137 -80.9491 198° South  Level Estimated

Login

Don't have an account? Register now (free) for customized features, flight alerts, and more!